{"data":{"norad_id":59638,"epoch":"2026-05-24T20:10:20.867520Z","epoch_age_seconds":91859,"freshness":"FRESH","line1":"1 59638U 24082H   26144.84051930 -.00001124  00000+0 -31337-4 0  9994","line2":"2 59638  43.0027  70.1394 0001025 273.3062  86.7673 15.27586259116504","mean_motion":15.27586259,"eccentricity":0.0001025,"inclination_deg":43.0027,"raan_deg":70.1394,"arg_perigee_deg":273.3062,"mean_anomaly_deg":86.7673,"bstar":-3.1337e-5,"rev_number":11650,"period_min":94.266362473217,"perigee_km":482.32708475216,"apogee_km":483.73362405981,"semimajor_km":6861.167354406,"source":"CELESTRAK","updated_at":"2026-05-25T13:38:19.014094Z"}}